Theta_e
312 312 312 311 308 305 305 306 307 308 310 310 310 311 311 311 309 310 312 310 310 314 317 315 314 314 313 317 318 317 320 318 318 320 318 320 321 322 321 321 322 333 346 347 349
312 312 311 312 312 310 306 305 306 307 308 310 310 310 310 310 311 314 311 310 311 314 313 314 314 313 314 316 320 321 320 318 319 319 320 322 321 322 322 323 323 324 342 347 349
312 312 311 312 312 313 311 307 305 306 307 308 309 310 309 310 312 310 317 310 311 313 312 313 311 313 314 316 319 321 320 320 320 320 321 322 321 321 321 323 323 322 324 346 349
313 312 312 311 312 312 313 312 308 306 307 307 309 309 309 312 311 314 316 312 310 310 312 313 312 313 313 315 316 320 320 321 321 320 321 319 318 319 320 322 322 321 320 337 348
312 312 312 311 311 312 313 313 313 306 306 307 308 309 311 312 312 311 314 316 312 313 315 315 315 312 314 313 313 316 315 316 318 315 316 316 318 318 319 320 320 319 323 333 342
311 312 312 312 311 311 312 313 314 307 306 306 307 309 311 313 309 311 312 310 311 313 312 312 313 312 314 315 315 316 315 316 315 316 315 317 318 316 320 318 320 320 327 345 345
310 310 311 311 311 311 312 313 312 307 307 306 307 310 313 313 311 315 314 312 315 313 312 309 310 313 315 316 315 315 318 317 316 317 317 316 318 318 319 318 320 320 320 332 345
309 309 309 310 311 311 312 312 309 309 307 306 309 314 314 311 312 312 316 314 314 313 312 311 310 315 316 315 316 318 316 317 316 315 316 316 318 319 317 318 320 319 320 320 321
309 309 309 310 310 311 310 312 312 310 308 309 313 313 315 313 315 313 314 314 312 311 312 311 314 316 316 319 319 317 316 316 316 315 316 317 318 319 318 317 320 321 320 319 319
308 309 309 310 310 310 312 316 317 312 312 313 317 316 315 316 317 318 314 314 316 316 317 315 315 317 316 319 316 317 316 315 315 316 316 316 317 318 318 317 319 319 318 319 320
308 309 311 311 311 310 310 312 312 313 319 315 315 317 315 314 314 316 316 315 316 317 318 316 316 316 317 319 318 318 319 319 317 316 315 317 318 319 319 318 319 317 319 324 326
309 309 312 311 311 310 310 313 311 310 312 311 313 313 313 313 314 316 315 317 316 319 315 315 317 317 316 316 317 316 316 316 316 314 316 318 318 319 318 317 320 323 325 325 327
309 309 312 311 311 310 310 310 311 308 313 312 311 312 313 313 314 314 316 316 317 317 317 317 317 316 316 315 316 316 316 317 318 315 315 316 319 320 317 321 323 324 324 326 326
309 309 311 311 310 309 310 310 311 308 314 313 314 313 314 314 315 314 314 317 315 319 317 317 316 316 316 317 316 318 316 317 317 318 320 316 320 321 320 319 325 326 326 327 328
309 310 312 311 311 311 310 310 309 308 316 313 314 312 312 313 313 315 313 316 318 316 316 318 316 316 317 317 316 318 317 318 318 320 319 318 320 320 318 320 326 327 327 328 329
309 310 312 312 311 310 311 309 310 313 314 314 312 312 313 313 314 314 313 314 314 316 316 317 315 314 316 314 316 316 318 318 316 319 321 320 320 320 328 328 328 329 330 329 330
309 310 311 311 310 310 310 310 313 313 311 311 310 311 312 312 314 313 312 312 315 319 319 316 313 312 311 315 314 319 321 321 321 321 320 318 319 329 328 326 326 328 328 327 327
309 310 311 310 310 310 309 313 313 311 310 309 309 312 311 312 314 314 313 312 311 314 316 318 316 312 310 311 313 315 321 321 321 320 321 320 324 331 325 324 324 325 325 326 326
309 309 311 310 310 308 315 315 311 309 308 309 310 312 311 312 313 314 313 311 310 311 314 316 312 310 310 309 311 312 316 312 320 321 322 323 330 328 325 324 321 321 322 323 323
307 307 311 309 309 309 314 311 310 308 308 309 310 310 312 311 313 314 315 312 310 310 312 311 313 311 311 309 311 310 311 317 318 321 322 323 328 330 324 321 319 317 317 317 319
307 311 310 310 309 312 313 312 311 309 309 310 309 310 310 310 310 313 314 313 311 311 314 317 317 314 317 313 314 316 315 312 317 319 319 319 322 329 322 320 320 319 317 317 318
305 309 309 309 312 308 312 310 309 310 309 309 309 309 309 310 311 311 313 310 309 309 311 314 318 318 316 308 309 310 313 314 316 317 319 319 319 314 312 313 313 314 314 314 314
308 308 309 308 311 311 310 310 309 310 309 308 309 309 309 310 311 309 310 309 309 309 310 310 310 312 312 308 308 310 310 310 310 311 316 318 319 310 312 313 314 314 314 313 313
309 312 310 307 306 309 310 310 311 309 307 306 308 307 308 309 309 309 310 309 309 310 309 308 310 311 313 312 308 309 309 308 309 310 310 310 311 310 311 313 313 313 313 312 312
306 309 306 311 310 309 308 308 309 310 307 307 308 308 309 310 309 310 310 310 309 309 309 310 310 308 306 307 309 309 309 308 309 308 309 308 308 308 311 312 311 311 310 311 311
309 309 305 307 306 308 306 306 306 306 306 307 308 306 308 309 309 309 308 309 310 310 310 309 312 310 309 309 309 309 309 308 308 307 307 307 307 310 311 310 310 310 310 310 310
300 301 305 305 307 308 308 307 306 305 305 306 305 306 306 306 307 307 307 307 307 308 310 311 312 311 310 308 308 307 306 307 307 308 307 307 308 311 311 311 311 310 310 310 310
Wind_Speed
27 26 26 25 23 22 20 16 14 13 11 10 10 10 11 13 14 9 7 6 9 16 15 19 12 8 5 4 3 3 4 7 7 7 3 0 4 5 7 9 9 3 4 4 17
27 27 27 27 24 22 20 16 13 12 11 9 9 10 12 15 13 10 11 9 8 23 18 15 10 10 4 5 4 5 5 8 3 4 2 6 4 8 7 12 4 7 1 8 13
29 29 29 28 26 23 21 19 14 12 11 10 9 9 10 12 5 2 2 12 15 25 15 9 14 5 4 4 6 5 6 6 5 8 5 7 6 2 7 8 4 12 11 7 10
30 30 31 29 27 24 21 20 18 13 11 10 9 7 7 4 3 1 1 13 19 20 14 11 7 7 6 8 6 5 6 6 3 6 3 6 2 6 9 13 16 16 12 8 12
30 30 32 32 31 26 22 21 20 15 12 10 8 5 1 0 8 3 1 21 20 18 13 8 8 6 8 6 7 8 4 6 9 7 8 6 10 7 9 15 14 14 9 11 13
32 32 33 33 32 28 25 23 21 15 12 9 7 3 2 5 2 2 10 23 19 14 10 9 8 6 5 6 8 6 5 4 4 6 5 7 6 5 5 8 8 10 8 8 9
35 35 35 35 33 28 26 25 21 12 11 8 6 3 2 12 4 4 13 16 18 12 6 7 6 6 7 6 3 2 4 4 7 4 5 8 7 6 2 7 9 9 8 7 7
39 39 40 37 32 27 25 22 13 8 7 6 6 3 7 3 5 10 11 9 11 10 3 4 7 3 2 5 3 2 2 5 3 2 1 6 9 5 3 7 9 9 9 8 8
43 43 43 38 32 25 18 8 9 7 7 10 5 1 7 3 5 10 14 8 10 8 4 8 3 1 4 4 3 0 5 5 3 1 3 1 3 7 6 5 7 6 5 7 9
46 47 43 36 29 19 6 6 9 8 11 6 3 3 5 1 2 4 15 9 4 9 5 4 2 4 3 7 6 5 5 4 5 3 4 5 11 9 7 7 8 6 5 7 8
47 48 41 34 23 8 3 1 1 1 2 5 6 7 8 11 10 5 7 11 5 5 8 4 6 10 13 10 6 4 5 8 5 5 3 4 8 9 8 9 6 3 6 8 9
48 47 36 31 10 11 8 4 5 6 8 8 14 11 17 9 6 2 12 10 9 12 7 5 12 13 8 8 6 5 4 7 7 4 7 3 9 9 7 5 7 7 9 11 12
48 43 31 19 10 9 8 7 18 3 4 6 3 4 3 6 5 6 13 7 11 12 12 13 3 7 10 8 8 7 8 6 7 1 5 5 4 2 6 10 8 10 10 11 13
47 36 26 17 5 12 1 21 21 11 3 9 5 4 2 2 3 4 13 6 4 18 9 8 6 7 8 10 10 9 13 10 8 3 3 2 3 4 2 5 10 12 13 14 15
45 30 21 17 8 3 15 25 2 4 2 12 7 4 6 4 8 6 3 4 11 8 7 6 7 9 8 11 13 8 6 9 7 6 3 6 4 4 4 5 12 13 13 13 14
44 23 17 14 13 17 24 11 3 2 1 5 6 11 8 11 7 4 5 6 2 5 2 1 2 2 3 2 9 1 5 3 2 4 8 9 7 5 2 5 9 9 11 12 14
43 17 17 13 12 25 18 1 1 1 5 6 7 9 6 9 11 9 6 8 2 8 8 1 4 4 4 3 3 4 6 4 7 7 10 4 6 3 2 3 5 7 10 13 13
43 14 10 19 25 17 7 2 1 3 3 3 7 5 5 11 9 9 2 4 8 2 3 3 5 8 9 4 2 3 3 5 5 5 2 2 4 4 4 3 3 6 8 10 13
42 16 10 29 18 11 2 3 2 2 4 7 6 3 4 5 5 7 6 1 4 6 4 1 3 2 8 11 3 3 2 2 3 1 3 3 3 4 4 3 4 4 5 10 12
25 11 9 31 13 4 3 3 1 2 4 3 4 4 5 7 6 8 3 1 2 2 1 2 2 4 5 3 8 6 2 2 1 5 9 5 4 3 7 5 5 7 9 11 11
9 4 15 27 6 6 3 2 2 1 6 4 2 3 2 3 4 7 3 4 7 2 5 3 1 5 4 2 3 3 1 2 1 2 4 6 3 3 2 4 7 6 8 10 10
6 3 19 20 4 2 2 4 3 3 4 2 1 1 2 3 3 3 3 4 9 3 2 2 3 3 5 4 5 6 7 7 5 5 2 2 3 4 5 5 7 9 13 13 11
4 3 11 9 4 3 4 3 2 3 3 3 2 3 2 1 3 2 2 5 8 2 3 5 2 2 2 4 3 4 4 3 3 0 14 10 4 4 4 5 7 9 10 12 13
3 4 3 4 2 2 3 2 4 2 2 2 2 1 2 1 1 3 3 2 5 3 6 2 2 4 5 4 1 3 4 2 2 4 5 6 4 5 2 4 5 7 8 9 10
3 2 1 3 3 3 1 2 3 3 3 4 2 5 3 3 4 3 2 4 1 6 2 1 4 1 1 1 2 4 7 7 8 7 7 7 9 9 2 2 4 3 6 8 9
2 1 1 1 2 3 2 1 2 4 3 2 1 3 1 3 4 7 2 1 2 4 3 3 2 2 2 2 4 9 10 9 9 11 11 12 14 1 3 2 5 8 11 12 9
1 1 1 1 1 2 1 2 1 5 1 1 1 2 5 5 3 5 6 7 5 4 2 1 4 2 4 2 6 10 15 15 8 6 7 8 5 1 1 7 10 12 13 13 11
Wind_Direction
14 11 9 7 4 1 357 349 348 350 347 349 348 345 331 327 322 297 248 227 183 166 149 134 138 141 130 129 122 156 206 222 219 196 224 263 2 330 297 288 315 299 291 359 140
11 9 6 3 1 357 356 349 337 335 338 336 335 334 331 328 318 262 258 200 185 167 153 148 149 145 138 148 159 199 223 220 216 205 236 313 327 318 311 308 280 302 347 120 147
10 8 4 358 355 352 349 347 335 319 316 321 317 321 329 332 294 254 34 173 168 169 167 148 142 147 152 163 179 178 239 195 210 225 251 287 289 254 293 295 256 313 321 176 173
6 4 1 357 351 346 343 340 333 314 300 307 317 319 327 338 308 173 184 166 162 170 154 135 143 158 165 183 184 210 224 206 246 223 219 267 277 273 261 266 289 299 284 222 201
3 0 357 355 349 343 336 333 332 308 292 287 310 326 16 325 252 266 196 168 159 161 162 156 169 160 193 186 165 226 231 202 241 246 252 275 257 262 256 275 304 301 275 246 218
3 358 353 349 346 339 332 327 324 306 280 264 280 305 132 263 222 210 164 160 174 165 164 165 191 187 152 180 200 201 208 254 247 249 220 222 248 184 260 314 318 326 320 278 250
3 357 352 345 342 337 329 323 319 302 270 248 242 177 202 253 189 118 176 177 178 175 162 199 176 186 147 157 189 147 263 268 215 223 228 202 239 228 294 323 315 320 322 287 262
0 355 350 345 340 337 329 325 327 311 255 216 178 145 249 254 230 235 189 186 185 190 136 186 164 110 288 120 79 202 231 251 126 172 345 211 241 253 110 335 314 310 297 296 273
358 354 349 345 343 338 339 19 40 55 110 128 118 155 268 272 241 226 197 179 161 174 168 121 148 109 152 179 195 52 242 223 275 346 132 240 254 265 329 319 299 293 306 319 319
357 352 348 347 345 342 45 83 70 74 101 98 97 268 247 289 176 156 194 163 154 137 125 156 136 182 157 196 226 194 213 217 233 134 294 284 265 267 291 301 292 333 336 335 351
357 352 349 349 345 14 95 34 297 184 169 239 261 259 283 286 259 223 167 168 132 167 184 184 206 212 208 208 231 201 242 263 254 246 268 262 265 287 288 284 308 352 10 350 342
356 352 351 352 17 32 57 67 72 304 301 258 265 264 260 270 284 169 149 166 189 197 141 176 229 228 208 179 186 196 219 260 299 216 213 268 283 294 297 59 58 26 4 350 341
357 354 355 7 51 23 78 93 338 229 279 308 222 273 324 163 220 252 189 165 190 189 195 213 195 185 181 171 188 212 225 236 258 128 237 258 229 318 99 98 63 35 5 352 347
356 355 359 13 27 360 94 333 334 172 318 348 5 33 343 161 230 237 207 175 173 205 194 229 224 174 183 206 203 231 216 236 248 234 251 255 230 282 112 120 40 17 7 355 350
355 356 356 12 336 350 316 329 13 178 345 342 354 335 347 348 312 40 58 226 197 162 179 198 195 191 207 228 194 227 195 209 211 221 219 192 242 184 358 127 12 6 6 2 359
353 356 2 358 342 331 333 339 134 243 336 354 346 351 5 16 20 336 23 44 44 149 166 164 49 45 331 68 194 110 164 121 133 186 242 234 237 182 354 343 359 21 23 20 16
350 345 12 5 330 335 339 359 231 214 347 8 336 338 344 4 19 24 41 49 24 211 223 176 45 353 11 196 92 201 192 220 218 211 250 132 217 28 27 36 21 11 18 20 23
347 349 350 357 343 338 345 23 215 8 6 359 335 328 45 4 25 14 77 78 43 41 91 209 164 13 358 26 12 75 259 241 254 231 184 171 205 113 113 112 35 37 27 19 18
346 354 12 353 346 344 24 59 56 8 330 333 325 22 19 12 1 13 28 53 35 19 84 134 105 319 48 44 343 92 101 355 106 39 247 150 112 179 185 123 86 47 22 15 6
343 338 359 349 347 28 72 92 66 346 329 336 349 13 344 352 354 8 330 32 60 17 91 129 148 22 7 327 44 67 45 205 103 225 242 191 195 151 166 103 59 44 18 4 356
357 358 352 353 9 50 68 48 321 6 13 355 347 302 358 350 316 328 328 48 11 349 43 113 300 175 298 37 336 335 248 75 331 246 265 251 155 80 94 354 334 349 345 341 338
355 331 353 359 49 32 55 326 314 337 7 359 41 33 51 5 305 287 311 336 337 283 91 59 132 210 260 332 278 246 258 232 230 191 213 309 202 72 43 28 4 11 9 357 346
353 293 352 20 62 29 330 319 297 354 1 0 32 26 17 353 304 351 348 345 359 24 161 172 167 187 204 211 186 216 164 139 118 138 253 254 221 144 65 43 22 15 9 12 13
338 337 5 50 40 37 8 357 332 6 86 14 29 40 10 355 26 303 319 356 359 50 69 122 153 228 266 337 43 204 180 141 202 229 256 243 280 215 335 18 16 22 21 17 16
9 51 25 347 24 359 301 334 329 331 36 19 104 40 358 296 309 284 305 293 48 359 31 358 245 252 264 187 236 246 240 238 233 248 253 276 266 288 260 343 7 0 350 341 349
1 329 128 329 299 305 353 86 336 334 312 359 60 11 350 261 278 290 304 293 330 354 28 7 186 206 241 309 283 270 251 242 243 254 262 262 271 197 120 325 331 340 340 337 333
52 83 275 60 341 277 94 342 316 340 243 58 22 298 282 289 281 286 274 278 277 307 338 304 164 176 263 5 301 275 249 229 224 211 244 243 292 140 326 343 333 326 323 317 318